| time (UTC) | temp C | wind direction | speed KPH | gust KPH | rain 1hr cm | rain 24hr cm | rain mn cm | humidity % | barometer mb |
| 20260505224532 | 20 | 283 | 16.1 | 38.6 | 0.00 | 0.00 | 0.00 | 57 | 1013.9 |
| 20260505223149 | 20 | 282 | 14.5 | 37.0 | 0.00 | 0.00 | 0.00 | 57 | 1014.0 |
| 20260505221536 | 20 | 275 | 17.7 | 38.6 | 0.00 | 0.00 | 0.00 | 57 | 1014.0 |
| 20260505220035 | 20 | 280 | 14.5 | 33.8 | 0.00 | 0.00 | 0.00 | 57 | 1014.3 |
| 20260505214535 | 20 | 275 | 12.9 | 43.5 | 0.00 | 0.00 | 0.00 | 58 | 1014.4 |
| 20260505213034 | 20 | 283 | 16.1 | 35.4 | 0.00 | 0.00 | 0.00 | 58 | 1014.5 |
| 20260505211608 | 20 | 278 | 16.1 | 33.8 | 0.00 | 0.00 | 0.00 | 58 | 1014.5 |
| 20260505210031 | 20 | 273 | 17.7 | 37.0 | 0.00 | 0.00 | 0.00 | 57 | 1014.6 |
| 20260505200037 | 20 | 279 | 12.9 | 38.6 | 0.00 | 0.00 | 0.00 | 57 | 1015.1 |
| 20260505194609 | 20 | 276 | 16.1 | 37.0 | 0.00 | 0.00 | 0.00 | 58 | 1015.2 |
| 20260505193135 | 19 | 280 | 16.1 | 46.7 | 0.00 | 0.00 | 0.00 | 58 | 1015.4 |
| 20260505191537 | 19 | 287 | 17.7 | 40.2 | 0.00 | 0.00 | 0.00 | 58 | 1015.3 |
| 20260505183107 | 18 | 288 | 16.1 | 38.6 | 0.00 | 0.00 | 0.00 | 61 | 1015.6 |
| 20260505181531 | 18 | 285 | 17.7 | 38.6 | 0.00 | 0.00 | 0.00 | 62 | 1015.7 |
| 20260505180032 | 18 | 285 | 12.9 | 33.8 | 0.00 | 0.00 | 0.00 | 63 | 1015.7 |
| 20260505174536 | 17 | 278 | 14.5 | 38.6 | 0.00 | 0.00 | 0.00 | 64 | 1015.7 |
| 20260505173035 | 17 | 286 | 14.5 | 37.0 | 0.00 | 0.00 | 0.00 | 65 | 1015.7 |
| 20260505171535 | 17 | 287 | 16.1 | 37.0 | 0.00 | 0.00 | 0.00 | 67 | 1015.6 |
| 20260505170034 | 16 | 286 | 16.1 | 35.4 | 0.00 | 0.00 | 0.00 | 68 | 1015.6 |
| 20260505164535 | 16 | 284 | 16.1 | 38.6 | 0.00 | 0.00 | 0.00 | 69 | 1015.6 |
| 20260505161609 | 16 | 282 | 14.5 | 38.6 | 0.00 | 0.00 | 0.00 | 70 | 1015.5 |
| 20260505153034 | 15 | 258 | 12.9 | 32.2 | 0.00 | 0.00 | 0.00 | 74 | 1015.5 |
| 20260505151533 | 14 | 249 | 14.5 | 32.2 | 0.00 | 0.00 | 0.00 | 76 | 1015.5 |
| 20260505124608 | 12 | 255 | 12.9 | 30.6 | 0.00 | 0.00 | 0.00 | 81 | 1014.6 |
| 20260505123106 | 13 | 253 | 12.9 | 29.0 | 0.00 | 0.00 | 0.00 | 81 | 1014.5 |
| 20260505114532 | 13 | 261 | 9.7 | 29.0 | 0.00 | 0.00 | 0.00 | 80 | 1014.2 |
| 20260505113033 | 13 | 248 | 9.7 | 25.7 | 0.00 | 0.00 | 0.00 | 79 | 1014.2 |
| 20260505101530 | 14 | 247 | 9.7 | 22.5 | 0.00 | 0.00 | 0.00 | 77 | 1013.7 |
| 20260505100036 | 14 | 241 | 9.7 | 22.5 | 0.00 | 0.00 | 0.00 | 77 | 1013.6 |
| 20260505094531 | 14 | 248 | 8.0 | 20.9 | 0.00 | 0.00 | 0.00 | 76 | 1013.5 |
| 20260505091535 | 15 | 245 | 9.7 | 29.0 | 0.00 | 0.00 | 0.00 | 74 | 1013.2 |
| 20260505090036 | 15 | 244 | 9.7 | 27.4 | 0.00 | 0.00 | 0.00 | 73 | 1012.9 |
| 20260505084642 | 16 | 236 | 11.3 | 30.6 | 0.00 | 0.00 | 0.00 | 73 | 1012.8 |
| 20260505081609 | 16 | 252 | 9.7 | 30.6 | 0.00 | 0.00 | 0.00 | 73 | 1012.7 |
| 20260505074535 | 17 | 245 | 11.3 | 29.0 | 0.00 | 0.00 | 0.00 | 73 | 1012.5 |
| 20260505073109 | 17 | 245 | 9.7 | 25.7 | 0.00 | 0.00 | 0.00 | 73 | 1012.4 |
| 20260505071532 | 17 | 245 | 9.7 | 25.7 | 0.00 | 0.00 | 0.00 | 72 | 1012.3 |
| 20260505070035 | 17 | 245 | 6.4 | 17.7 | 0.00 | 0.00 | 0.00 | 70 | 1012.2 |
| 20260505063034 | 18 | 257 | 8.0 | 20.9 | 0.00 | 0.00 | 0.00 | 68 | 1011.9 |
| 20260505054532 | 18 | 259 | 4.8 | 22.5 | 0.00 | 0.00 | 0.00 | 66 | 1011.8 |
| 20260505053031 | 18 | 252 | 9.7 | 24.1 | 0.00 | 0.00 | 0.00 | 65 | 1011.7 |
| 20260505041648 | 20 | 260 | 9.7 | 24.1 | 0.00 | 0.00 | 0.00 | 59 | 1010.8 |
| 20260505034608 | 20 | 270 | 8.0 | 17.7 | 0.00 | 0.00 | 0.00 | 57 | 1010.4 |
| 20260505033033 | 20 | 257 | 8.0 | 19.3 | 0.00 | 0.00 | 0.00 | 56 | 1010.3 |
| 20260505030108 | 21 | 260 | 8.0 | 20.9 | 0.00 | 0.00 | 0.00 | 55 | 1009.7 |
| 20260505024534 | 21 | 252 | 8.0 | 22.5 | 0.00 | 0.00 | 0.00 | 55 | 1009.6 |
| 20260505023110 | 21 | 237 | 8.0 | 22.5 | 0.00 | 0.00 | 0.00 | 55 | 1009.6 |
| 20260505021608 | 21 | 239 | 8.0 | 19.3 | 0.00 | 0.00 | 0.00 | 54 | 1009.5 |
| 20260505020110 | 22 | 235 | 6.4 | 14.5 | 0.00 | 0.00 | 0.00 | 53 | 1009.4 |
| 20260505013110 | 23 | 248 | 9.7 | 27.4 | 0.00 | 0.00 | 0.00 | 49 | 1009.2 |
| 20260505011609 | 23 | 255 | 11.3 | 35.4 | 0.00 | 0.00 | 0.00 | 49 | 1009.1 |
| 20260505010036 | 23 | 258 | 11.3 | 32.2 | 0.00 | 0.00 | 0.00 | 48 | 1009.1 |
| 20260505004530 | 24 | 257 | 16.1 | 35.4 | 0.00 | 0.00 | 0.00 | 47 | 1009.2 |
| 20260505003111 | 24 | 261 | 12.9 | 35.4 | 0.00 | 0.00 | 0.00 | 47 | 1009.1 |
| 20260505001529 | 24 | 267 | 14.5 | 38.6 | 0.00 | 0.00 | 0.00 | 46 | 1009.0 |
| 20260505000038 | 24 | 277 | 14.5 | 45.1 | 0.00 | 0.00 | 0.00 | 46 | 1008.9 |
| 20260504234532 | 25 | 281 | 12.9 | 33.8 | 0.00 | 0.00 | 0.00 | 46 | 1008.8 |
| 20260504233033 | 25 | 287 | 14.5 | 37.0 | 0.00 | 0.00 | 0.00 | 46 | 1008.8 |
| 20260504231535 | 24 | 285 | 12.9 | 30.6 | 0.00 | 0.00 | 0.00 | 47 | 1008.9 |
| 20260504230036 | 24 | 286 | 14.5 | 33.8 | 0.00 | 0.00 | 0.00 | 47 | 1009.0 |
| 20260504224641 | 24 | 297 | 12.9 | 29.0 | 0.00 | 0.00 | 0.00 | 48 | 1009.3 |